Time,TemperatureF,DewpointF,PressureIn,WindDirection,WindDirectionDegrees,WindSpeedMPH,WindSpeedGustMPH,Humidity,HourlyPrecipIn,Conditions,Clouds,dailyrainin,SoftwareType,DateUTC
2013-01-02 00:00:00,17.6,10.7,30.02,WSW,247,3.0,3.0,74,0.00,,OVC003,0.00,VWS V14.01,2013-01-02 05:00:00,
2013-01-02 00:01:00,17.6,10.7,30.02,WSW,247,3.0,3.0,74,0.00,,OVC003,0.00,VWS V14.01,2013-01-02 05:01:00,
2013-01-02 00:04:00,17.6,10.7,30.02,SSW,195,4.0,5.0,74,0.00,,OVC003,0.00,VWS V14.01,2013-01-02 05:04:00,
2013-01-02 00:07:00,17.6,10.7,30.02,SSW,195,3.0,3.0,74,0.00,,OVC003,0.00,VWS V14.01,2013-01-02 05:07:00,
2013-01-02 00:12:00,17.4,10.6,30.02,SSW,196,2.0,0.0,74,0.00,,OVC003,0.00,VWS V14.01,2013-01-02 05:12:00,
2013-01-02 00:17:00,17.3,10.4,30.02,SSW,196,4.0,4.0,74,0.00,,OVC003,0.00,VWS V14.01,2013-01-02 05:17:00,
2013-01-02 00:22:00,17.2,10.4,30.02,SSW,196,2.0,0.0,74,0.00,,OVC003,0.00,VWS V14.01,2013-01-02 05:22:00,
2013-01-02 00:27:00,17.1,10.6,30.02,SSW,196,2.0,0.0,75,0.00,,OVC003,0.00,VWS V14.01,2013-01-02 05:27:00,
2013-01-02 00:32:00,17.1,10.3,30.02,SSW,195,2.0,0.0,74,0.00,,OVC003,0.00,VWS V14.01,2013-01-02 05:32:00,
2013-01-02 00:37:00,17.0,10.5,30.02,SSW,195,2.0,0.0,75,0.00,,OVC003,0.00,VWS V14.01,2013-01-02 05:37:00,
2013-01-02 00:42:00,16.8,10.3,30.02,SSW,196,2.0,0.0,75,0.00,,OVC003,0.00,VWS V14.01,2013-01-02 05:42:00,
2013-01-02 00:47:00,16.7,10.2,30.02,SSW,195,2.0,0.0,75,0.00,,OVC003,0.00,VWS V14.01,2013-01-02 05:47:00,
2013-01-02 00:52:00,16.6,10.1,30.02,SSW,196,2.0,0.0,75,0.00,,OVC003,0.00,VWS V14.01,2013-01-02 05:52:00,
2013-01-02 00:57:00,16.4,10.2,30.02,SSW,195,2.0,0.0,76,0.00,,OVC003,0.00,VWS V14.01,2013-01-02 05:57:00,
2013-01-02 01:02:00,16.4,10.2,30.02,SSW,195,2.0,0.0,76,0.00,,OVC003,0.00,VWS V14.01,2013-01-02 06:02:00,
2013-01-02 01:07:00,16.3,10.1,30.02,SSW,196,2.0,0.0,76,0.00,,OVC003,0.00,VWS V14.01,2013-01-02 06:07:00,
2013-01-02 01:12:00,16.3,10.1,30.02,SSW,195,2.0,0.0,76,0.00,,OVC003,0.00,VWS V14.01,2013-01-02 06:12:00,
2013-01-02 01:17:00,16.3,10.4,30.02,SSW,196,2.0,0.0,77,0.00,,OVC003,0.00,VWS V14.01,2013-01-02 06:17:00,
2013-01-02 01:22:00,16.3,10.4,30.02,SSW,196,2.0,2.0,77,0.00,,OVC003,0.00,VWS V14.01,2013-01-02 06:22:00,
2013-01-02 01:27:00,16.4,10.5,30.02,West,261,2.0,2.0,77,0.00,,OVC003,0.00,VWS V14.01,2013-01-02 06:27:00,
2013-01-02 01:32:00,16.5,10.6,30.01,West,261,2.0,2.0,77,0.00,,OVC003,0.00,VWS V14.01,2013-01-02 06:32:00,
2013-01-02 01:37:00,16.5,10.6,30.01,West,261,2.0,2.0,77,0.00,,OVC003,0.00,VWS V14.01,2013-01-02 06:37:00,
2013-01-02 01:42:00,16.5,10.6,30.01,West,261,2.0,0.0,77,0.00,,OVC003,0.00,VWS V14.01,2013-01-02 06:42:00,
2013-01-02 01:47:00,16.6,10.7,30.01,West,260,3.0,3.0,77,0.00,,OVC003,0.00,VWS V14.01,2013-01-02 06:47:00,
2013-01-02 01:52:00,16.6,10.7,30.01,West,261,2.0,0.0,77,0.00,,OVC003,0.00,VWS V14.01,2013-01-02 06:52:00,
2013-01-02 01:57:00,16.6,10.7,30.01,West,261,2.0,2.0,77,0.00,,OVC003,0.00,VWS V14.01,2013-01-02 06:57:00,
2013-01-02 02:02:00,16.6,10.7,30.01,West,261,4.0,4.0,77,0.00,,OVC003,0.00,VWS V14.01,2013-01-02 07:02:00,
2013-01-02 02:07:00,16.6,10.7,30.01,SSW,211,2.0,0.0,77,0.00,,OVC003,0.00,VWS V14.01,2013-01-02 07:07:00,
2013-01-02 02:12:00,16.7,10.8,30.01,SSW,199,2.0,2.0,77,0.00,,OVC003,0.00,VWS V14.01,2013-01-02 07:12:00,
2013-01-02 02:17:00,16.7,10.8,30.01,NW,312,2.0,0.0,77,0.00,,OVC003,0.00,VWS V14.01,2013-01-02 07:17:00,
2013-01-02 02:22:00,16.7,10.8,30.01,NW,312,2.0,2.0,77,0.00,,OVC003,0.00,VWS V14.01,2013-01-02 07:22:00,
2013-01-02 02:27:00,16.6,10.7,30.01,WSW,243,2.0,0.0,77,0.00,,OVC003,0.00,VWS V14.01,2013-01-02 07:27:00,
2013-01-02 02:32:00,16.5,10.6,30.02,WSW,243,3.0,3.0,77,0.00,,OVC003,0.00,VWS V14.01,2013-01-02 07:32:00,
2013-01-02 02:37:00,16.4,10.5,30.02,WSW,243,2.0,0.0,77,0.00,,OVC003,0.00,VWS V14.01,2013-01-02 07:37:00,
2013-01-02 02:42:00,16.2,10.6,30.02,WSW,243,2.0,0.0,78,0.00,,OVC003,0.00,VWS V14.01,2013-01-02 07:42:00,
2013-01-02 02:47:00,16.0,10.4,30.03,WSW,243,2.0,0.0,78,0.00,,OVC003,0.00,VWS V14.01,2013-01-02 07:47:00,
2013-01-02 02:52:00,15.9,10.3,30.03,WSW,243,2.0,0.0,78,0.00,,OVC003,0.00,VWS V14.01,2013-01-02 07:52:00,
2013-01-02 02:57:00,15.8,10.2,30.03,WSW,243,2.0,0.0,78,0.00,,OVC003,0.00,VWS V14.01,2013-01-02 07:57:00,
2013-01-02 03:03:00,15.7,10.4,30.03,WSW,243,2.0,0.0,79,0.00,,OVC003,0.00,VWS V14.01,2013-01-02 08:03:00,
2013-01-02 03:08:00,15.7,10.4,30.03,WSW,243,3.0,3.0,79,0.00,,OVC003,0.00,VWS V14.01,2013-01-02 08:08:00,
2013-01-02 03:13:00,15.7,10.4,30.03,WSW,243,2.0,2.0,79,0.00,,OVC003,0.00,VWS V14.01,2013-01-02 08:13:00,
2013-01-02 03:18:00,15.7,10.4,30.03,WSW,243,2.0,2.0,79,0.00,,OVC003,0.00,VWS V14.01,2013-01-02 08:18:00,
2013-01-02 03:23:00,15.7,10.4,30.03,WSW,243,3.0,3.0,79,0.00,,OVC003,0.00,VWS V14.01,2013-01-02 08:23:00,
2013-01-02 03:28:00,15.7,10.4,30.03,WSW,243,2.0,0.0,79,0.00,,OVC003,0.00,VWS V14.01,2013-01-02 08:28:00,
2013-01-02 03:33:00,15.7,10.6,30.03,WSW,243,2.0,0.0,80,0.00,,OVC003,0.00,VWS V14.01,2013-01-02 08:33:00,
2013-01-02 03:38:00,15.7,10.6,30.03,WSW,243,2.0,0.0,80,0.00,,OVC003,0.00,VWS V14.01,2013-01-02 08:38:00,
2013-01-02 03:43:00,15.7,10.6,30.03,WSW,243,2.0,2.0,80,0.00,,OVC003,0.00,VWS V14.01,2013-01-02 08:43:00,
2013-01-02 03:48:00,15.8,10.7,30.04,WSW,243,2.0,2.0,80,0.00,,OVC003,0.00,VWS V14.01,2013-01-02 08:48:00,
2013-01-02 03:53:00,15.9,10.8,30.04,WSW,243,2.0,2.0,80,0.00,,OVC003,0.00,VWS V14.01,2013-01-02 08:53:00,
2013-01-02 03:58:00,16.0,10.9,30.04,WSW,243,4.0,4.0,80,0.00,,OVC003,0.00,VWS V14.01,2013-01-02 08:58:00,
2013-01-02 04:03:00,16.2,11.1,30.04,WSW,243,5.0,5.0,80,0.00,,OVC003,0.00,VWS V14.01,2013-01-02 09:03:00,
2013-01-02 04:08:00,16.4,11.3,30.04,SW,222,2.0,2.0,80,0.00,,OVC003,0.00,VWS V14.01,2013-01-02 09:08:00,
2013-01-02 04:13:00,16.6,11.5,30.04,SW,222,2.0,0.0,80,0.00,,OVC003,0.00,VWS V14.01,2013-01-02 09:13:00,
2013-01-02 04:18:00,16.6,11.5,30.04,SW,222,3.0,3.0,80,0.00,,OVC003,0.00,VWS V14.01,2013-01-02 09:18:00,
2013-01-02 04:23:00,16.6,11.5,30.04,SW,222,2.0,2.0,80,0.00,,OVC003,0.00,VWS V14.01,2013-01-02 09:23:00,
2013-01-02 04:28:00,16.6,11.5,30.04,SW,222,5.0,5.0,80,0.00,,OVC003,0.00,VWS V14.01,2013-01-02 09:28:00,
2013-01-02 04:33:00,16.6,11.5,30.04,SW,222,3.0,3.0,80,0.00,,OVC003,0.00,VWS V14.01,2013-01-02 09:33:00,
2013-01-02 04:38:00,16.7,11.6,30.04,SW,221,3.0,3.0,80,0.00,,OVC003,0.00,VWS V14.01,2013-01-02 09:38:00,
2013-01-02 04:43:00,16.7,11.6,30.04,SW,222,2.0,2.0,80,0.00,,OVC003,0.00,VWS V14.01,2013-01-02 09:43:00,
2013-01-02 04:48:00,16.8,11.7,30.04,SW,222,2.0,2.0,80,0.00,,OVC003,0.00,VWS V14.01,2013-01-02 09:48:00,
2013-01-02 04:53:00,16.9,11.8,30.04,WNW,293,2.0,2.0,80,0.00,,OVC003,0.00,VWS V14.01,2013-01-02 09:53:00,
2013-01-02 04:58:00,17.0,11.9,30.04,SW,217,2.0,2.0,80,0.00,,OVC003,0.00,VWS V14.01,2013-01-02 09:58:00,
2013-01-02 05:03:00,17.2,12.1,30.04,SW,218,2.0,2.0,80,0.00,,OVC003,0.00,VWS V14.01,2013-01-02 10:03:00,
2013-01-02 05:08:00,17.3,12.2,30.04,SW,218,4.0,4.0,80,0.00,,OVC003,0.00,VWS V14.01,2013-01-02 10:08:00,
2013-01-02 05:13:00,17.5,12.1,30.04,WNW,301,2.0,2.0,79,0.00,,OVC003,0.00,VWS V14.01,2013-01-02 10:13:00,
2013-01-02 05:18:00,17.7,12.3,30.04,SW,218,3.0,3.0,79,0.00,,OVC003,0.00,VWS V14.01,2013-01-02 10:18:00,
2013-01-02 05:23:00,17.8,12.4,30.04,SW,218,2.0,0.0,79,0.00,,OVC003,0.00,VWS V14.01,2013-01-02 10:23:00,
2013-01-02 05:28:00,17.9,12.5,30.04,SSW,207,3.0,3.0,79,0.00,,OVC003,0.00,VWS V14.01,2013-01-02 10:28:00,
2013-01-02 05:33:00,18.1,12.7,30.03,West,272,3.0,3.0,79,0.00,,OVC003,0.00,VWS V14.01,2013-01-02 10:33:00,
2013-01-02 05:38:00,18.2,12.8,30.03,West,261,2.0,2.0,79,0.00,,OVC003,0.00,VWS V14.01,2013-01-02 10:38:00,
2013-01-02 05:43:00,18.3,12.9,30.03,West,274,3.0,4.0,79,0.00,,OVC003,0.00,VWS V14.01,2013-01-02 10:43:00,
2013-01-02 05:48:00,18.3,12.6,30.03,WSW,245,3.0,3.0,78,0.00,,OVC003,0.00,VWS V14.01,2013-01-02 10:48:00,
2013-01-02 05:53:00,18.4,12.7,30.03,WSW,246,2.0,2.0,78,0.00,,OVC003,0.00,VWS V14.01,2013-01-02 10:53:00,
2013-01-02 05:58:00,18.5,12.8,30.03,WSW,245,2.0,0.0,78,0.00,,OVC003,0.00,VWS V14.01,2013-01-02 10:58:00,
2013-01-02 06:03:00,18.6,12.9,30.03,WSW,245,3.0,3.0,78,0.00,,OVC003,0.00,VWS V14.01,2013-01-02 11:03:00,
2013-01-02 06:08:00,18.6,12.9,30.03,WSW,240,2.0,3.0,78,0.00,,OVC003,0.00,VWS V14.01,2013-01-02 11:08:00,
2013-01-02 06:14:00,18.7,13.0,30.03,WNW,303,2.0,6.0,78,0.00,,OVC003,0.00,VWS V14.01,2013-01-02 11:14:00,
2013-01-02 06:19:00,18.8,13.1,30.04,West,280,2.0,2.0,78,0.00,,OVC003,0.00,VWS V14.01,2013-01-02 11:19:00,
2013-01-02 06:24:00,18.9,13.2,30.04,SSW,213,2.0,3.0,78,0.00,,OVC003,0.00,VWS V14.01,2013-01-02 11:24:00,
2013-01-02 06:29:00,18.9,13.2,30.04,SSW,212,6.0,6.0,78,0.00,,OVC003,0.00,VWS V14.01,2013-01-02 11:29:00,
2013-01-02 06:34:00,19.0,13.3,30.04,SW,228,2.0,2.0,78,0.00,,OVC003,0.00,VWS V14.01,2013-01-02 11:34:00,
2013-01-02 06:39:00,19.1,13.4,30.04,SW,228,2.0,2.0,78,0.00,,OVC003,0.00,VWS V14.01,2013-01-02 11:39:00,
2013-01-02 06:44:00,19.2,13.5,30.04,SSW,203,3.0,3.0,78,0.00,,OVC003,0.00,VWS V14.01,2013-01-02 11:44:00,
2013-01-02 06:49:00,19.3,13.6,30.05,SSW,203,4.0,4.0,78,0.00,,OVC003,0.00,VWS V14.01,2013-01-02 11:49:00,
2013-01-02 06:54:00,19.4,13.7,30.05,SSW,197,2.0,2.0,78,0.00,,OVC003,0.00,VWS V14.01,2013-01-02 11:54:00,
2013-01-02 06:59:00,19.5,13.8,30.05,SSW,197,2.0,2.0,78,0.00,,OVC003,0.00,VWS V14.01,2013-01-02 11:59:00,
2013-01-02 07:04:00,19.6,13.9,30.06,SSW,197,2.0,2.0,78,0.00,,OVC003,0.00,VWS V14.01,2013-01-02 12:04:00,
2013-01-02 07:09:00,19.6,13.9,30.06,SSW,197,2.0,2.0,78,0.00,,OVC003,0.00,VWS V14.01,2013-01-02 12:09:00,
2013-01-02 07:14:00,19.7,14.0,30.06,WSW,243,2.0,0.0,78,0.00,,OVC003,0.00,VWS V14.01,2013-01-02 12:14:00,
2013-01-02 07:19:00,19.7,14.0,30.06,WSW,243,2.0,2.0,78,0.00,,OVC003,0.00,VWS V14.01,2013-01-02 12:19:00,
2013-01-02 07:24:00,19.7,14.0,30.06,WSW,243,2.0,0.0,78,0.00,,OVC003,0.00,VWS V14.01,2013-01-02 12:24:00,
2013-01-02 07:29:00,19.7,14.0,30.06,WSW,243,2.0,0.0,78,0.00,,OVC003,0.00,VWS V14.01,2013-01-02 12:29:00,
2013-01-02 07:34:00,19.7,14.0,30.06,WSW,243,2.0,2.0,78,0.00,,OVC003,0.00,VWS V14.01,2013-01-02 12:34:00,
2013-01-02 07:39:00,19.8,14.1,30.06,WSW,243,2.0,2.0,78,0.00,,OVC003,0.00,VWS V14.01,2013-01-02 12:39:00,
2013-01-02 07:44:00,19.9,14.2,30.06,WSW,243,3.0,3.0,78,0.00,,OVC003,0.00,VWS V14.01,2013-01-02 12:44:00,
2013-01-02 07:49:00,20.0,14.3,30.06,WSW,243,2.0,2.0,78,0.00,,OVC003,0.00,VWS V14.01,2013-01-02 12:49:00,
2013-01-02 07:54:00,20.0,14.3,30.06,WSW,243,2.0,0.0,78,0.00,,OVC003,0.00,VWS V14.01,2013-01-02 12:54:00,
2013-01-02 07:59:00,20.1,14.4,30.06,WSW,243,2.0,2.0,78,0.00,,OVC003,0.00,VWS V14.01,2013-01-02 12:59:00,
2013-01-02 08:04:00,20.2,14.4,30.06,WSW,253,2.0,2.0,78,0.00,,OVC003,0.00,VWS V14.01,2013-01-02 13:04:00,
2013-01-02 08:09:00,20.3,14.6,30.06,WSW,253,4.0,4.0,78,0.00,,OVC003,0.00,VWS V14.01,2013-01-02 13:09:00,
2013-01-02 08:14:00,20.4,14.6,30.06,SW,230,2.0,3.0,78,0.00,,OVC003,0.00,VWS V14.01,2013-01-02 13:14:00,
2013-01-02 08:19:00,20.4,14.6,30.07,SW,234,2.0,3.0,78,0.00,,OVC003,0.00,VWS V14.01,2013-01-02 13:19:00,
2013-01-02 08:24:00,20.5,14.7,30.07,SW,234,2.0,2.0,78,0.00,,OVC003,0.00,VWS V14.01,2013-01-02 13:24:00,
2013-01-02 08:29:00,20.6,14.8,30.07,SW,234,2.0,0.0,78,0.00,,OVC003,0.00,VWS V14.01,2013-01-02 13:29:00,
2013-01-02 08:34:00,20.6,14.8,30.07,SW,234,2.0,2.0,78,0.00,,OVC003,0.00,VWS V14.01,2013-01-02 13:34:00,
2013-01-02 08:39:00,20.7,14.9,30.07,SW,234,2.0,2.0,78,0.00,,OVC003,0.00,VWS V14.01,2013-01-02 13:39:00,
2013-01-02 08:44:00,20.7,14.9,30.07,SW,234,2.0,0.0,78,0.00,,OVC003,0.00,VWS V14.01,2013-01-02 13:44:00,
2013-01-02 08:49:00,20.8,15.0,30.07,SW,234,3.0,3.0,78,0.00,,OVC003,0.00,VWS V14.01,2013-01-02 13:49:00,
2013-01-02 08:54:00,20.8,15.0,30.07,SW,234,2.0,0.0,78,0.00,,OVC003,0.00,VWS V14.01,2013-01-02 13:54:00,
2013-01-02 08:59:00,20.9,15.1,30.07,SW,234,2.0,0.0,78,0.00,,OVC003,0.00,VWS V14.01,2013-01-02 13:59:00,
2013-01-02 09:04:00,21.0,15.2,30.08,SW,234,2.0,0.0,78,0.00,,OVC003,0.00,VWS V14.01,2013-01-02 14:04:00,
2013-01-02 09:09:00,21.0,15.2,30.08,SW,234,2.0,2.0,78,0.00,,OVC003,0.00,VWS V14.01,2013-01-02 14:09:00,
2013-01-02 09:14:00,21.1,15.3,30.08,SW,234,2.0,0.0,78,0.00,,OVC003,0.00,VWS V14.01,2013-01-02 14:14:00,
2013-01-02 09:19:00,21.1,15.3,30.08,SW,234,2.0,2.0,78,0.00,,OVC003,0.00,VWS V14.01,2013-01-02 14:19:00,
2013-01-02 09:24:00,21.2,15.4,30.08,SW,234,2.0,0.0,78,0.00,,OVC003,0.00,VWS V14.01,2013-01-02 14:24:00,
2013-01-02 09:29:00,21.2,15.4,30.08,SW,234,2.0,0.0,78,0.00,,OVC003,0.00,VWS V14.01,2013-01-02 14:29:00,
2013-01-02 09:34:00,21.3,15.5,30.08,SW,234,2.0,2.0,78,0.00,,OVC003,0.00,VWS V14.01,2013-01-02 14:34:00,
2013-01-02 09:40:00,21.3,15.5,30.08,SW,234,2.0,0.0,78,0.00,,OVC003,0.00,VWS V14.01,2013-01-02 14:40:00,
2013-01-02 09:45:00,21.4,15.6,30.08,SW,234,2.0,2.0,78,0.00,,OVC003,0.00,VWS V14.01,2013-01-02 14:45:00,
2013-01-02 09:50:00,21.5,15.7,30.09,SW,234,2.0,2.0,78,0.00,,OVC003,0.00,VWS V14.01,2013-01-02 14:50:00,
2013-01-02 09:55:00,21.6,15.8,30.09,SW,234,2.0,2.0,78,0.00,,OVC003,0.00,VWS V14.01,2013-01-02 14:55:00,
2013-01-02 10:00:00,21.6,15.8,30.09,SW,234,2.0,2.0,78,0.00,,OVC003,0.00,VWS V14.01,2013-01-02 15:00:00,
2013-01-02 10:05:00,21.7,15.9,30.09,SW,234,2.0,0.0,78,0.00,,OVC003,0.00,VWS V14.01,2013-01-02 15:05:00,
2013-01-02 10:10:00,21.7,15.9,30.09,SW,234,2.0,2.0,78,0.00,,OVC003,0.00,VWS V14.01,2013-01-02 15:10:00,
2013-01-02 10:15:00,21.8,16.3,30.09,SW,234,2.0,2.0,79,0.00,,OVC003,0.00,VWS V14.01,2013-01-02 15:15:00,
2013-01-02 10:20:00,21.8,16.3,30.10,NNW,348,2.0,2.0,79,0.00,,OVC003,0.00,VWS V14.01,2013-01-02 15:20:00,
2013-01-02 10:25:00,21.9,16.4,30.10,NNW,340,2.0,2.0,79,0.00,,OVC003,0.00,VWS V14.01,2013-01-02 15:25:00,
2013-01-02 10:30:00,21.9,16.4,30.10,NNW,337,2.0,2.0,79,0.00,,OVC003,0.00,VWS V14.01,2013-01-02 15:30:00,
2013-01-02 10:35:00,22.0,16.5,30.12,West,264,2.0,2.0,79,0.00,,OVC003,0.00,VWS V14.01,2013-01-02 15:35:00,
2013-01-02 10:40:00,22.0,16.5,30.12,West,264,2.0,2.0,79,0.00,,OVC003,0.00,VWS V14.01,2013-01-02 15:40:00,
2013-01-02 10:45:00,22.0,16.5,30.12,West,264,2.0,2.0,79,0.00,,OVC003,0.00,VWS V14.01,2013-01-02 15:45:00,
2013-01-02 10:50:00,22.1,16.6,30.12,West,264,2.0,2.0,79,0.00,,OVC003,0.00,VWS V14.01,2013-01-02 15:50:00,
2013-01-02 10:55:00,22.1,16.6,30.12,West,264,2.0,0.0,79,0.00,,OVC003,0.00,VWS V14.01,2013-01-02 15:55:00,
2013-01-02 11:00:00,22.2,16.7,30.12,West,264,2.0,0.0,79,0.00,,OVC003,0.00,VWS V14.01,2013-01-02 16:00:00,
2013-01-02 11:05:00,22.3,16.8,30.12,West,264,2.0,0.0,79,0.00,,OVC003,0.00,VWS V14.01,2013-01-02 16:05:00,
2013-01-02 11:10:00,22.4,17.2,30.12,West,264,2.0,0.0,80,0.00,,OVC003,0.00,VWS V14.01,2013-01-02 16:10:00,
2013-01-02 11:15:00,22.5,17.3,30.12,West,264,2.0,2.0,80,0.00,,OVC003,0.00,VWS V14.01,2013-01-02 16:15:00,
2013-01-02 11:20:00,22.5,17.3,30.12,West,264,2.0,0.0,80,0.00,,OVC003,0.00,VWS V14.01,2013-01-02 16:20:00,
2013-01-02 11:25:00,22.5,17.3,30.12,West,264,2.0,0.0,80,0.00,,OVC003,0.00,VWS V14.01,2013-01-02 16:25:00,
2013-01-02 11:30:00,22.5,17.3,30.12,West,264,2.0,0.0,80,0.00,,OVC003,0.00,VWS V14.01,2013-01-02 16:30:00,
2013-01-02 11:35:00,22.6,17.4,30.12,West,264,2.0,0.0,80,0.00,,OVC003,0.00,VWS V14.01,2013-01-02 16:35:00,
2013-01-02 11:40:00,22.6,17.4,30.12,West,264,2.0,0.0,80,0.00,,OVC003,0.00,VWS V14.01,2013-01-02 16:40:00,
2013-01-02 11:45:00,22.7,17.5,30.12,West,264,2.0,2.0,80,0.00,,OVC003,0.00,VWS V14.01,2013-01-02 16:45:00,
2013-01-02 11:51:00,22.7,17.5,30.12,West,264,2.0,2.0,80,0.00,,OVC003,0.00,VWS V14.01,2013-01-02 16:51:00,
2013-01-02 11:56:00,22.7,17.5,30.12,West,264,4.0,4.0,80,0.00,,OVC003,0.00,VWS V14.01,2013-01-02 16:56:00,
2013-01-02 12:01:00,22.6,17.4,30.12,West,264,4.0,4.0,80,0.00,,OVC003,0.00,VWS V14.01,2013-01-02 17:01:00,
2013-01-02 12:06:00,22.5,17.3,30.12,West,264,4.0,4.0,80,0.00,,OVC003,0.00,VWS V14.01,2013-01-02 17:06:00,
2013-01-02 12:11:00,22.5,17.3,30.12,SW,223,2.0,2.0,80,0.00,,OVC003,0.00,VWS V14.01,2013-01-02 17:11:00,
2013-01-02 12:16:00,22.6,17.4,30.12,SW,223,3.0,3.0,80,0.00,,OVC003,0.00,VWS V14.01,2013-01-02 17:16:00,
2013-01-02 12:21:00,22.7,17.5,30.12,SW,222,2.0,2.0,80,0.00,,OVC003,0.00,VWS V14.01,2013-01-02 17:21:00,
2013-01-02 12:26:00,22.7,17.5,30.12,SW,223,2.0,3.0,80,0.00,,OVC003,0.00,VWS V14.01,2013-01-02 17:26:00,
2013-01-02 12:31:00,22.8,17.6,30.11,SW,223,2.0,0.0,80,0.00,,OVC003,0.00,VWS V14.01,2013-01-02 17:31:00,
2013-01-02 12:36:00,22.8,17.6,30.11,SW,223,2.0,2.0,80,0.00,,OVC003,0.00,VWS V14.01,2013-01-02 17:36:00,
2013-01-02 12:41:00,22.8,17.6,30.11,SSW,201,4.0,5.0,80,0.00,,OVC003,0.00,VWS V14.01,2013-01-02 17:41:00,
2013-01-02 12:46:00,22.8,17.6,30.10,SSW,201,2.0,2.0,80,0.00,,OVC003,0.00,VWS V14.01,2013-01-02 17:46:00,
2013-01-02 12:51:00,22.9,17.7,30.10,SSW,201,2.0,0.0,80,0.00,,OVC003,0.00,VWS V14.01,2013-01-02 17:51:00,
2013-01-02 12:56:00,23.1,17.9,30.10,SSW,201,2.0,0.0,80,0.00,,OVC003,0.00,VWS V14.01,2013-01-02 17:56:00,
2013-01-02 13:01:00,23.2,18.0,30.10,SSW,201,3.0,3.0,80,0.00,,OVC003,0.00,VWS V14.01,2013-01-02 18:01:00,
2013-01-02 13:06:00,23.2,17.7,30.10,SSW,201,2.0,2.0,79,0.00,,OVC003,0.00,VWS V14.01,2013-01-02 18:06:00,
2013-01-02 13:11:00,23.2,17.7,30.10,WSW,254,2.0,3.0,79,0.00,,OVC003,0.00,VWS V14.01,2013-01-02 18:11:00,
2013-01-02 13:16:00,23.2,17.7,30.10,WSW,254,2.0,0.0,79,0.00,,OVC003,0.00,VWS V14.01,2013-01-02 18:16:00,
2013-01-02 13:21:00,23.3,17.8,30.10,WSW,254,2.0,0.0,79,0.00,,OVC003,0.00,VWS V14.01,2013-01-02 18:21:00,
2013-01-02 13:26:00,23.4,17.9,30.10,WSW,253,2.0,2.0,79,0.00,,OVC003,0.00,VWS V14.01,2013-01-02 18:26:00,
2013-01-02 13:31:00,23.4,17.9,30.10,WSW,253,2.0,2.0,79,0.00,,OVC003,0.00,VWS V14.01,2013-01-02 18:31:00,
2013-01-02 13:36:00,23.4,17.9,30.10,WSW,254,2.0,2.0,79,0.00,,OVC003,0.00,VWS V14.01,2013-01-02 18:36:00,
2013-01-02 13:41:00,23.5,18.0,30.10,WSW,254,2.0,2.0,79,0.00,,OVC003,0.00,VWS V14.01,2013-01-02 18:41:00,
2013-01-02 13:46:00,23.5,18.0,30.10,WSW,254,2.0,2.0,79,0.00,,OVC003,0.00,VWS V14.01,2013-01-02 18:46:00,
2013-01-02 13:51:00,23.7,18.1,30.10,WSW,254,2.0,2.0,79,0.00,,OVC003,0.00,VWS V14.01,2013-01-02 18:51:00,
2013-01-02 13:56:00,23.7,18.1,30.10,SW,226,3.0,3.0,79,0.00,,OVC003,0.00,VWS V14.01,2013-01-02 18:56:00,
2013-01-02 14:01:00,23.6,18.1,30.10,SW,226,4.0,4.0,79,0.00,,OVC003,0.00,VWS V14.01,2013-01-02 19:01:00,
2013-01-02 14:06:00,23.5,17.7,30.10,SW,226,3.0,3.0,78,0.00,,OVC003,0.00,VWS V14.01,2013-01-02 19:06:00,
2013-01-02 14:11:00,23.5,17.7,30.10,SW,226,2.0,3.0,78,0.00,,OVC003,0.00,VWS V14.01,2013-01-02 19:11:00,
2013-01-02 14:16:00,23.5,18.0,30.10,SW,226,2.0,2.0,79,0.00,,OVC003,0.00,VWS V14.01,2013-01-02 19:16:00,
2013-01-02 14:21:00,23.7,18.1,30.10,SW,226,3.0,3.0,79,0.00,,OVC003,0.00,VWS V14.01,2013-01-02 19:21:00,
2013-01-02 14:26:00,23.7,18.1,30.10,SW,226,2.0,2.0,79,0.00,,OVC003,0.00,VWS V14.01,2013-01-02 19:26:00,
2013-01-02 14:31:00,23.7,17.9,30.09,SW,226,3.0,3.0,78,0.00,,OVC003,0.00,VWS V14.01,2013-01-02 19:31:00,
2013-01-02 14:36:00,23.6,18.1,30.09,SW,226,2.0,2.0,79,0.00,,OVC003,0.00,VWS V14.01,2013-01-02 19:36:00,
2013-01-02 14:41:00,23.6,18.1,30.09,SW,226,2.0,2.0,79,0.00,,OVC003,0.00,VWS V14.01,2013-01-02 19:41:00,
2013-01-02 14:46:00,23.7,18.1,30.09,SW,226,2.0,0.0,79,0.00,,OVC003,0.00,VWS V14.01,2013-01-02 19:46:00,
2013-01-02 14:51:00,23.7,18.1,30.09,SW,226,2.0,0.0,79,0.00,,OVC003,0.00,VWS V14.01,2013-01-02 19:51:00,
2013-01-02 14:56:00,23.7,17.9,30.09,SW,226,3.0,3.0,78,0.00,,OVC003,0.00,VWS V14.01,2013-01-02 19:56:00,
2013-01-02 15:01:00,23.7,17.9,30.09,SW,226,2.0,0.0,78,0.00,,OVC003,0.00,VWS V14.01,2013-01-02 20:01:00,
2013-01-02 15:06:00,23.8,18.2,30.09,SW,226,2.0,0.0,79,0.00,,OVC003,0.00,VWS V14.01,2013-01-02 20:06:00,
2013-01-02 15:11:00,23.8,18.2,30.09,SW,226,2.0,0.0,79,0.00,,OVC003,0.00,VWS V14.01,2013-01-02 20:11:00,
2013-01-02 15:16:00,23.9,18.0,30.09,SW,226,2.0,0.0,78,0.00,,OVC003,0.00,VWS V14.01,2013-01-02 20:16:00,
2013-01-02 15:21:00,24.0,18.1,30.09,SW,226,2.0,0.0,78,0.00,,OVC003,0.00,VWS V14.01,2013-01-02 20:21:00,
2013-01-02 15:26:00,24.2,18.6,30.09,SW,226,2.0,0.0,79,0.00,,OVC003,0.00,VWS V14.01,2013-01-02 20:26:00,
2013-01-02 15:31:00,24.2,18.3,30.09,SW,226,2.0,0.0,78,0.00,,OVC003,0.00,VWS V14.01,2013-01-02 20:31:00,
2013-01-02 15:36:00,24.3,18.4,30.09,SW,226,2.0,0.0,78,0.00,,OVC003,0.00,VWS V14.01,2013-01-02 20:36:00,
2013-01-02 15:42:00,24.2,18.3,30.09,SW,226,2.0,0.0,78,0.00,,OVC003,0.00,VWS V14.01,2013-01-02 20:42:00,
2013-01-02 15:47:00,24.3,18.4,30.09,SW,226,2.0,0.0,78,0.00,,OVC003,0.00,VWS V14.01,2013-01-02 20:47:00,
2013-01-02 15:52:00,24.3,18.4,30.09,SW,226,2.0,0.0,78,0.00,,OVC003,0.00,VWS V14.01,2013-01-02 20:52:00,
2013-01-02 15:57:00,24.3,18.1,30.09,SW,226,2.0,0.0,77,0.00,,OVC003,0.00,VWS V14.01,2013-01-02 20:57:00,
2013-01-02 16:02:00,24.3,18.1,30.09,SW,226,2.0,0.0,77,0.00,,OVC003,0.00,VWS V14.01,2013-01-02 21:02:00,
2013-01-02 16:07:00,24.2,18.0,30.09,SW,226,2.0,0.0,77,0.00,,OVC003,0.00,VWS V14.01,2013-01-02 21:07:00,
2013-01-02 16:12:00,24.2,18.0,30.09,SW,226,2.0,0.0,77,0.00,,OVC003,0.00,VWS V14.01,2013-01-02 21:12:00,
2013-01-02 16:17:00,24.2,18.0,30.10,SW,226,2.0,0.0,77,0.00,,OVC003,0.00,VWS V14.01,2013-01-02 21:17:00,
2013-01-02 16:22:00,24.2,18.0,30.10,SW,226,2.0,0.0,77,0.00,,OVC003,0.00,VWS V14.01,2013-01-02 21:22:00,
2013-01-02 16:27:00,24.2,18.0,30.10,SW,226,2.0,0.0,77,0.00,,OVC003,0.00,VWS V14.01,2013-01-02 21:27:00,
2013-01-02 16:32:00,24.2,18.3,30.10,SW,226,2.0,0.0,78,0.00,,OVC003,0.00,VWS V14.01,2013-01-02 21:32:00,
2013-01-02 16:37:00,24.1,18.0,30.10,SW,226,2.0,0.0,77,0.00,,OVC003,0.00,VWS V14.01,2013-01-02 21:37:00,
2013-01-02 16:42:00,24.1,18.0,30.10,SW,226,2.0,0.0,77,0.00,,OVC003,0.00,VWS V14.01,2013-01-02 21:42:00,
2013-01-02 16:47:00,24.1,18.2,30.10,SW,226,2.0,0.0,78,0.00,,OVC003,0.00,VWS V14.01,2013-01-02 21:47:00,
2013-01-02 16:52:00,24.1,18.2,30.10,SW,226,2.0,0.0,78,0.00,,OVC003,0.00,VWS V14.01,2013-01-02 21:52:00,
2013-01-02 16:57:00,24.1,18.2,30.10,SW,226,2.0,0.0,78,0.00,,OVC003,0.00,VWS V14.01,2013-01-02 21:57:00,
2013-01-02 17:02:00,24.0,18.1,30.10,SW,226,2.0,0.0,78,0.00,,OVC003,0.00,VWS V14.01,2013-01-02 22:02:00,
2013-01-02 17:07:00,24.0,18.1,30.10,SW,226,2.0,0.0,78,0.00,,OVC003,0.00,VWS V14.01,2013-01-02 22:07:00,
2013-01-02 17:12:00,24.0,18.1,30.10,SW,226,2.0,0.0,78,0.00,,OVC003,0.00,VWS V14.01,2013-01-02 22:12:00,
2013-01-02 17:17:00,24.0,18.1,30.10,SW,226,2.0,0.0,78,0.00,,OVC003,0.00,VWS V14.01,2013-01-02 22:17:00,
2013-01-02 17:22:00,24.0,18.1,30.10,SW,226,2.0,0.0,78,0.00,,OVC003,0.00,VWS V14.01,2013-01-02 22:22:00,
2013-01-02 17:27:00,24.0,18.1,30.10,SW,226,2.0,0.0,78,0.00,,OVC003,0.00,VWS V14.01,2013-01-02 22:27:00,
2013-01-02 17:32:00,23.9,18.0,30.10,SW,226,2.0,0.0,78,0.00,,OVC003,0.00,VWS V14.01,2013-01-02 22:32:00,
2013-01-02 17:37:00,24.0,18.5,30.10,SW,226,2.0,0.0,79,0.00,,OVC003,0.00,VWS V14.01,2013-01-02 22:37:00,
2013-01-02 17:42:00,24.0,18.5,30.10,SW,226,2.0,0.0,79,0.00,,OVC003,0.00,VWS V14.01,2013-01-02 22:42:00,
2013-01-02 17:47:00,24.0,18.5,30.11,SW,226,2.0,0.0,79,0.00,,OVC003,0.00,VWS V14.01,2013-01-02 22:47:00,
2013-01-02 17:52:00,24.0,18.5,30.11,SW,226,2.0,0.0,79,0.00,,OVC003,0.00,VWS V14.01,2013-01-02 22:52:00,
2013-01-02 17:57:00,23.9,18.4,30.11,SW,226,2.0,0.0,79,0.00,,OVC003,0.00,VWS V14.01,2013-01-02 22:57:00,
2013-01-02 18:02:00,23.9,18.4,30.10,SW,226,2.0,0.0,79,0.00,,OVC003,0.00,VWS V14.01,2013-01-02 23:02:00,
2013-01-02 18:07:00,23.9,18.6,30.10,SW,226,2.0,0.0,80,0.00,,OVC003,0.00,VWS V14.01,2013-01-02 23:07:00,
2013-01-02 18:12:00,23.9,18.6,30.10,SW,226,2.0,0.0,80,0.00,,OVC003,0.00,VWS V14.01,2013-01-02 23:12:00,
2013-01-02 18:17:00,23.9,18.6,30.10,SW,226,2.0,0.0,80,0.00,,OVC003,0.00,VWS V14.01,2013-01-02 23:17:00,
2013-01-02 18:22:00,23.9,18.6,30.10,SW,226,2.0,0.0,80,0.00,,OVC003,0.00,VWS V14.01,2013-01-02 23:22:00,
2013-01-02 18:27:00,23.8,18.5,30.10,SW,226,2.0,0.0,80,0.00,,OVC003,0.00,VWS V14.01,2013-01-02 23:27:00,
2013-01-02 18:32:00,23.8,18.8,30.10,SW,226,2.0,0.0,81,0.00,,OVC003,0.00,VWS V14.01,2013-01-02 23:32:00,
2013-01-02 18:37:00,23.8,18.8,30.10,SW,226,2.0,0.0,81,0.00,,OVC003,0.00,VWS V14.01,2013-01-02 23:37:00,
2013-01-02 18:42:00,23.8,18.8,30.10,SW,226,2.0,0.0,81,0.00,,OVC003,0.00,VWS V14.01,2013-01-02 23:42:00,
2013-01-02 18:47:00,23.8,18.8,30.11,SW,226,2.0,0.0,81,0.00,,OVC003,0.00,VWS V14.01,2013-01-02 23:47:00,
2013-01-02 18:52:00,23.8,18.8,30.11,SW,226,2.0,0.0,81,0.00,,OVC003,0.00,VWS V14.01,2013-01-02 23:52:00,
2013-01-02 18:57:00,23.8,18.8,30.11,SW,226,2.0,0.0,81,0.00,,OVC003,0.00,VWS V14.01,2013-01-02 23:57:00,
2013-01-02 19:03:00,23.8,18.8,30.11,SW,226,2.0,0.0,81,0.00,,OVC003,0.00,VWS V14.01,2013-01-03 00:03:00,
2013-01-02 19:08:00,23.9,18.9,30.11,SW,226,2.0,0.0,81,0.00,,OVC003,0.00,VWS V14.01,2013-01-03 00:08:00,
2013-01-02 19:13:00,23.9,18.9,30.11,SW,226,2.0,0.0,81,0.00,,OVC003,0.00,VWS V14.01,2013-01-03 00:13:00,
2013-01-02 19:18:00,23.9,18.9,30.12,SW,226,2.0,0.0,81,0.00,,OVC003,0.00,VWS V14.01,2013-01-03 00:18:00,
2013-01-02 19:23:00,23.9,18.9,30.12,SW,226,2.0,0.0,81,0.00,,OVC003,0.00,VWS V14.01,2013-01-03 00:23:00,
2013-01-02 19:28:00,23.9,18.9,30.12,SW,226,2.0,0.0,81,0.00,,OVC003,0.00,VWS V14.01,2013-01-03 00:28:00,
2013-01-02 19:33:00,23.9,18.9,30.12,SW,226,2.0,0.0,81,0.00,,OVC003,0.00,VWS V14.01,2013-01-03 00:33:00,
2013-01-02 19:38:00,23.9,18.9,30.12,SW,226,2.0,0.0,81,0.00,,OVC003,0.00,VWS V14.01,2013-01-03 00:38:00,
2013-01-02 19:43:00,23.9,18.9,30.12,SW,226,2.0,0.0,81,0.00,,OVC003,0.00,VWS V14.01,2013-01-03 00:43:00,
2013-01-02 19:48:00,24.0,19.3,30.12,SW,226,2.0,0.0,82,0.00,,OVC003,0.00,VWS V14.01,2013-01-03 00:48:00,
2013-01-02 19:53:00,24.0,19.0,30.12,SE,139,2.0,0.0,81,0.00,,OVC003,0.00,VWS V14.01,2013-01-03 00:53:00,
2013-01-02 19:58:00,24.1,19.4,30.12,SE,139,2.0,0.0,82,0.00,,OVC003,0.00,VWS V14.01,2013-01-03 00:58:00,
2013-01-02 20:03:00,24.1,19.4,30.12,SE,139,2.0,0.0,82,0.00,,OVC003,0.00,VWS V14.01,2013-01-03 01:03:00,
2013-01-02 20:08:00,24.1,19.4,30.12,SE,139,2.0,0.0,82,0.00,,OVC003,0.00,VWS V14.01,2013-01-03 01:08:00,
2013-01-02 20:13:00,24.2,19.5,30.12,SE,139,2.0,0.0,82,0.00,,OVC003,0.00,VWS V14.01,2013-01-03 01:13:00,
2013-01-02 20:18:00,24.1,19.4,30.11,SE,139,2.0,0.0,82,0.00,,OVC003,0.00,VWS V14.01,2013-01-03 01:18:00,
2013-01-02 20:23:00,24.2,19.5,30.11,SE,139,2.0,0.0,82,0.00,,OVC003,0.00,VWS V14.01,2013-01-03 01:23:00,
2013-01-02 20:28:00,24.2,19.5,30.11,SE,139,2.0,0.0,82,0.00,,OVC003,0.00,VWS V14.01,2013-01-03 01:28:00,
2013-01-02 20:33:00,24.2,19.5,30.10,SE,139,2.0,0.0,82,0.00,,OVC003,0.00,VWS V14.01,2013-01-03 01:33:00,
2013-01-02 20:38:00,24.2,19.5,30.10,SE,139,2.0,0.0,82,0.00,,OVC003,0.00,VWS V14.01,2013-01-03 01:38:00,
2013-01-02 20:43:00,24.2,19.5,30.10,SE,139,2.0,0.0,82,0.00,,OVC003,0.00,VWS V14.01,2013-01-03 01:43:00,
2013-01-02 20:48:00,24.2,19.5,30.10,SE,139,2.0,0.0,82,0.00,,OVC003,0.00,VWS V14.01,2013-01-03 01:48:00,
2013-01-02 20:53:00,24.2,19.5,30.10,SE,139,2.0,0.0,82,0.00,,OVC003,0.00,VWS V14.01,2013-01-03 01:53:00,
2013-01-02 20:58:00,24.2,19.5,30.10,SE,139,2.0,2.0,82,0.00,,OVC003,0.00,VWS V14.01,2013-01-03 01:58:00,
2013-01-02 21:04:00,24.2,19.5,30.09,SE,139,2.0,0.0,82,0.00,,OVC003,0.00,VWS V14.01,2013-01-03 02:04:00,
2013-01-02 21:09:00,24.3,19.6,30.09,SE,139,2.0,0.0,82,0.00,,OVC003,0.00,VWS V14.01,2013-01-03 02:09:00,
2013-01-02 21:14:00,24.2,19.5,30.09,SE,139,3.0,3.0,82,0.00,,OVC003,0.00,VWS V14.01,2013-01-03 02:14:00,
2013-01-02 21:19:00,24.3,19.6,30.09,SE,139,2.0,0.0,82,0.00,,OVC003,0.00,VWS V14.01,2013-01-03 02:19:00,
2013-01-02 21:24:00,24.3,19.9,30.09,SE,139,2.0,0.0,83,0.00,,OVC003,0.00,VWS V14.01,2013-01-03 02:24:00,
2013-01-02 21:29:00,24.3,19.9,30.09,SE,139,2.0,0.0,83,0.00,,OVC003,0.00,VWS V14.01,2013-01-03 02:29:00,
2013-01-02 21:34:00,24.3,19.9,30.09,SE,139,2.0,0.0,83,0.00,,OVC003,0.00,VWS V14.01,2013-01-03 02:34:00,
2013-01-02 21:39:00,24.3,19.9,30.09,SE,139,2.0,0.0,83,0.00,,OVC003,0.00,VWS V14.01,2013-01-03 02:39:00,
2013-01-02 21:44:00,24.3,19.9,30.09,SE,139,2.0,0.0,83,0.00,,OVC003,0.00,VWS V14.01,2013-01-03 02:44:00,
2013-01-02 21:49:00,24.3,19.9,30.09,SE,139,2.0,0.0,83,0.00,,OVC003,0.00,VWS V14.01,2013-01-03 02:49:00,
2013-01-02 21:54:00,24.4,20.0,30.09,SE,139,2.0,0.0,83,0.00,,OVC003,0.00,VWS V14.01,2013-01-03 02:54:00,
2013-01-02 21:59:00,24.4,20.0,30.09,SE,139,2.0,0.0,83,0.00,,OVC003,0.00,VWS V14.01,2013-01-03 02:59:00,
2013-01-02 22:04:00,24.4,20.0,30.09,SE,139,2.0,0.0,83,0.00,,OVC003,0.00,VWS V14.01,2013-01-03 03:04:00,
2013-01-02 22:09:00,24.4,20.0,30.09,SE,139,2.0,0.0,83,0.00,,OVC003,0.00,VWS V14.01,2013-01-03 03:09:00,
2013-01-02 22:14:00,24.4,20.3,30.09,SE,139,2.0,0.0,84,0.00,,OVC003,0.00,VWS V14.01,2013-01-03 03:14:00,
2013-01-02 22:19:00,24.4,20.3,30.08,SE,139,2.0,2.0,84,0.00,,OVC003,0.00,VWS V14.01,2013-01-03 03:19:00,
2013-01-02 22:24:00,24.5,20.4,30.08,SE,139,2.0,0.0,84,0.00,,OVC003,0.00,VWS V14.01,2013-01-03 03:24:00,
2013-01-02 22:29:00,24.5,20.4,30.08,SE,139,2.0,2.0,84,0.00,,OVC003,0.00,VWS V14.01,2013-01-03 03:29:00,
2013-01-02 22:35:00,24.5,20.4,30.08,SE,139,2.0,2.0,84,0.00,,OVC003,0.00,VWS V14.01,2013-01-03 03:35:00,
2013-01-02 22:41:00,24.5,20.4,30.08,SE,139,2.0,0.0,84,0.00,,OVC003,0.00,VWS V14.01,2013-01-03 03:41:00,
2013-01-02 22:46:00,24.6,20.5,30.07,SE,139,2.0,0.0,84,0.00,,OVC003,0.00,VWS V14.01,2013-01-03 03:46:00,
2013-01-02 22:51:00,24.6,20.7,30.07,South,170,2.0,3.0,85,0.00,,OVC003,0.00,VWS V14.01,2013-01-03 03:51:00,
2013-01-02 22:56:00,24.7,20.8,30.07,South,170,2.0,2.0,85,0.00,,OVC003,0.00,VWS V14.01,2013-01-03 03:56:00,
2013-01-02 23:01:00,24.7,20.8,30.07,South,170,2.0,2.0,85,0.00,,OVC003,0.00,VWS V14.01,2013-01-03 04:01:00,
2013-01-02 23:06:00,24.8,20.9,30.07,South,170,3.0,3.0,85,0.00,,OVC003,0.00,VWS V14.01,2013-01-03 04:06:00,
2013-01-02 23:11:00,24.9,21.3,30.07,SSW,209,4.0,5.0,86,0.00,,OVC003,0.00,VWS V14.01,2013-01-03 04:11:00,
2013-01-02 23:16:00,25.1,21.5,30.07,SE,139,2.0,5.0,86,0.00,,OVC003,0.00,VWS V14.01,2013-01-03 04:16:00,
2013-01-02 23:21:00,25.2,21.3,30.07,SW,214,4.0,4.0,85,0.00,,OVC003,0.00,VWS V14.01,2013-01-03 04:21:00,
2013-01-02 23:26:00,25.2,21.3,30.07,WSW,247,3.0,4.0,85,0.00,,OVC003,0.00,VWS V14.01,2013-01-03 04:26:00,
2013-01-02 23:31:00,25.3,21.4,30.07,SW,222,4.0,4.0,85,0.00,,OVC003,0.00,VWS V14.01,2013-01-03 04:31:00,
2013-01-02 23:36:00,25.3,21.4,30.07,SW,231,4.0,5.0,85,0.00,,OVC003,0.00,VWS V14.01,2013-01-03 04:36:00,
2013-01-02 23:41:00,25.3,21.4,30.07,South,186,3.0,4.0,85,0.00,,OVC003,0.00,VWS V14.01,2013-01-03 04:41:00,
2013-01-02 23:47:00,25.3,21.1,30.07,South,186,2.0,2.0,84,0.00,,OVC003,0.00,VWS V14.01,2013-01-03 04:47:00,
2013-01-02 23:52:00,25.3,21.1,30.07,SSE,164,2.0,7.0,84,0.00,,OVC003,0.00,VWS V14.01,2013-01-03 04:52:00,
2013-01-02 23:57:00,25.3,21.1,30.07,SSW,201,5.0,5.0,84,0.00,,OVC003,0.00,VWS V14.01,2013-01-03 04:57:00,